This is the latest recevied weather packets stored in our database for station/object KC3ELT-10. If no packets are shown the sender has not sent any weather packets the latest 10 day(s).
| Time | Temp. | Humidity | Pressure | Rain* | Wind** | Luminosity | Snow |
|---|---|---|---|---|---|---|---|
| 1778191379 | 15.56° C | 37% | 1002.5 hPa | 0 mm | 1.79 m/s, 283° | - | - |
| 1778191079 | 16.11° C | 36% | 1002.2 hPa | 0 mm | 2.68 m/s, 289° | - | - |
| 1778190779 | 16.11° C | 35% | 1002.2 hPa | 0 mm | 1.79 m/s, 0° | - | - |
| 1778190479 | 16.11° C | 36% | 1002.2 hPa | 0 mm | 1.34 m/s, 359° | - | - |
| 1778190179 | 16.11° C | 36% | 1002.4 hPa | 0 mm | 2.68 m/s, 357° | - | - |
| 1778189879 | 16.67° C | 35% | 1002.4 hPa | 0 mm | 1.34 m/s, 0° | - | - |
| 1778189579 | 16.67° C | 34% | 1002.4 hPa | 0 mm | 0.45 m/s, 13° | - | - |
| 1778189279 | 16.67° C | 36% | 1002.1 hPa | 0 mm | 2.68 m/s, 250° | - | - |
| 1778188979 | 17.22° C | 35% | 1002.1 hPa | 0 mm | 1.34 m/s, 359° | - | - |
| 1778188679 | 17.22° C | 37% | 1002.1 hPa | 0 mm | 3.13 m/s, 311° | - | - |
| 1778188379 | 16.67° C | 35% | 1002.1 hPa | 0 mm | 1.79 m/s, 327° | - | - |
| 1778188079 | 16.67° C | 35% | 1002.1 hPa | 0 mm | 2.24 m/s, 263° | - | - |
| 1778187779 | 16.67° C | 36% | 1002.1 hPa | 0 mm | 0.89 m/s, 295° | - | - |
| 1778187479 | 16.67° C | 36% | 1002 hPa | 0 mm | 2.68 m/s, 1° | - | - |
| 1778187179 | 17.22° C | 36% | 1002 hPa | 0 mm | 1.34 m/s, 2° | - | - |
| 1778186879 | 17.22° C | 36% | 1002 hPa | 0 mm | 1.34 m/s, 262° | - | - |
| 1778186579 | 16.67° C | 37% | 1002 hPa | 0 mm | 0.45 m/s, 4° | - | - |
| 1778186279 | 16.67° C | 36% | 1002 hPa | 0 mm | 1.79 m/s, 23° | - | - |
| 1778185979 | 16.67° C | 37% | 1002 hPa | 0 mm | 1.34 m/s, 23° | - | - |
| 1778185679 | 16.67° C | 39% | 1002 hPa | 0 mm | 1.79 m/s, 274° | - | - |
| 1778185379 | 16.67° C | 37% | 1002 hPa | 0 mm | 0.89 m/s, 0° | - | - |
| 1778185079 | 17.22° C | 35% | 1002 hPa | 0 mm | 2.24 m/s, 304° | - | - |
| 1778184779 | 17.22° C | 38% | 1002.2 hPa | 0 mm | 2.24 m/s, 1° | - | - |
| 1778184479 | 17.22° C | 37% | 1002.2 hPa | 0 mm | 1.34 m/s, 282° | - | - |
| 1778184179 | 17.22° C | 37% | 1002.2 hPa | 0 mm | 0.45 m/s, 62° | - | - |
* Rain latest hour (hover to see other rain measurements)
** Current wind speed in m/s (hover to see current wind gust speed)